AirNav   Everest Fuels
 
 1151 users online  

AZ50 Triangle Airpark
White Hills, Arizona, USA

GOING TO WHITE HILLS?


FAA INFORMATION EFFECTIVE 01 DECEMBER 2022

Location

FAA Identifier: AZ50
Lat/Long: 35-42-59.0000N 114-28-48.0000W
35-42.983333N 114-28.800000W
35.7163889,-114.4800000
(estimated)
Elevation: 2460 ft. / 750 m (estimated)
Variation: 14E (1985)
From city: 5 miles SW of WHITE HILLS, AZ
Time zone: UTC -7 (year round; does not observe DST)
Zip code: 86441

Airport Operations

Airport use: Private use. Permission required prior to landing
Activation date: 07/1982
Control tower: no
ARTCC: LOS ANGELES CENTER
FSS: PRESCOTT FLIGHT SERVICE STATION
Attendance: CONTINUOUS
Wind indicator: yes
Segmented circle: no

Nearby radio navigation aids

VOR radial/distance  VOR name  Freq  Var
BLDr117/25.1BOULDER CITY VORTAC116.7015E
IGMr301/38.2KINGMAN VOR/DME108.8015E
LASr108/39.6LAS VEGAS VORTAC116.9015E

Airport Services

Runway Information

Runway 17/35

Dimensions: 3900 x 50 ft. / 1189 x 15 m
Surface: asphalt
Runway edge markings: RYS 17 & 35 THLDS MARKED WITH ORANGE CONES.
RUNWAY 17  RUNWAY 35
Traffic pattern: leftleft
Obstructions: nonepline

Runway 8/26

Dimensions: 1844 x 50 ft. / 562 x 15 m
Surface: dirt
Runway edge markings: RYS 08 & 26 THLDS MARKED WITH ORANGE CONES.
RUNWAY 8  RUNWAY 26
Traffic pattern: leftleft
Obstructions: nonepline

Airport Ownership and Management from official FAA records

Ownership: Privately-owned
Owner: TRIANGLE AIRPARK PROPERTY OWNERS
1834 HWY 95
BULLHEAD CITY, AZ 86442
Phone 928-763-7368
Manager: TRIANGLE AIRPARK PROPERTY OWNERS
1834 HWY 95
BULLHEAD CITY, AZ 86442
Phone 928-763-7368

Airport Operational Statistics

Aircraft based on the field: 17
Single engine airplanes: 10
Multi engine airplanes: 3
Gliders airplanes: 3
Ultralights: 1
    

Additional Remarks

FOR CD CTC LOS ANGELES ARTCC AT 661-575-2079.

Instrument Procedures

There are no published instrument procedures at AZ50.

Some nearby airports with instrument procedures:

KBVU - Boulder City Municipal Airport (23 nm NW)
KIFP - Laughlin/Bullhead International Airport (34 nm S)
KHND - Henderson Executive Airport (35 nm NW)
KIGM - Kingman Airport (38 nm SE)
KLAS - Harry Reid International Airport (39 nm NW)
 
Loc | Ops | Rwys | IFR | FBO | Links
Com | Nav | Svcs | Stats | Notes
Area around AZ50 (Triangle Airpark)
 
Road maps at: MapQuest Bing Google
 
Aerial photo
WARNING: Photo may not be current or correct
Aerial photo of AZ50 (Triangle Airpark)
Do you have a better or more recent aerial photo of Triangle Airpark that you would like to share? If so, please send us your photo.

 
Sectional chart

 
Airport distance calculator
Flying to Triangle Airpark? Find the distance to fly.

From to AZ50

Sunrise and sunset
Times for 09-Dec-2022
 Local
(UTC-7)
 Zulu
(UTC)
Morning civil twilight07:0914:09
Sunrise07:3714:37
Sunset17:2300:23
Evening civil twilight17:5200:52

Current date and time
Zulu (UTC)  10-Dec-2022 02:54:16
Local (UTC-7)  09-Dec-2022 19:54:16
 
METAR
KBVU 
23nm NW 
100235Z AUTO 02006KT 10SM CLR 08/M03 A3009 RMK AO2
KHND 
36nm NW 
100156Z 00000KT 10SM CLR 08/M03 A3010 RMK AO2 SLP221 T00781033
KIFP 
38nm S 
100048Z 35005KT 20SM CLR 15/M03 A3006
KIGM 
39nm SE 
100151Z AUTO 17003KT 10SM CLR 02/M09 A3008 RMK AO2 SLP179 T00171089
KLAS 
39nm NW 
100156Z 00000KT 10SM FEW250 11/M04 A3008 RMK AO2 SLP190 T01061039
KLSV 
40nm NW 
100155Z AUTO 06008KT 10SM CLR 07/M07 A3007 RMK AO2 SLP189 T00711073 $
KVGT 
45nm NW 
100153Z 00000KT 10SM CLR 11/M04 A3008 RMK AO2 SLP208 T01111039
TAF
KHND 
36nm NW 
091720Z 0918/1018 VRB04KT P6SM SKC FM092000 02006KT P6SM SKC FM100300 17006KT P6SM FEW250 FM101000 19007KT P6SM SCT250
KIFP 
38nm S 
091720Z 0918/1018 VRB04KT P6SM SKC FM091900 35009KT P6SM SKC FM100200 02005KT P6SM FEW250 FM101000 VRB04KT P6SM SCT250
KLAS 
39nm NW 
092035Z 0921/1024 08005KT P6SM SKC FM092300 10006KT P6SM SKC FM100300 22005KT P6SM FEW250 FM100800 26005KT P6SM FEW250 FM101500 30004KT P6SM SCT250 FM101900 08006KT P6SM SCT250
KLSV 
40nm NW 
092300Z 0923/1105 15008KT 9999 SCT180 QNH3007INS BECMG 1002/1003 12010KT 9999 FEW200 QNH3008INS BECMG 1008/1009 VRB05KT 9999 FEW180 SCT200 QNH3011INS BECMG 1018/1019 14010G15KT 9999 FEW140 SCT180 QNH3010INS TX16/0923Z TN01/1014Z
NOTAMs
Click for the latest NOTAMs
NOTAMs are issued by the DoD/FAA and will open in a separate window not controlled by AirNav.

 

 
 

Would you like to see your business listed on this page?

 If your business provides an interesting product or service to pilots, flight crews, aircraft, or users of the Triangle Airpark, you should consider listing it here.  To start the listing process, click on the button below
 
Add a business
 

Other Pages about Triangle Airpark

Update a link
 
Copyright © AirNav, LLC. All rights reserved. Privacy Policy  Contact